Location: Unspecified
(0.0000°N, 0.0000°E)
Time: 06:50:15
(UTC+00:00)

Envisat - Pass Details

Date: 18 July 2017
Orbit: 764 x 766 km, 98.2° (Epoch: 20 July)

Event Time Altitude Azimuth Distance (km) Brightness Sun altitude
Exits shadow 20:11:29 27° 14° (NNE) 1,447 4.4 -29.0°
Drops below altitude 10° 20:13:49 10° 2° (N) 2,291 5.7 -29.6°
Sets 20:16:10 0° 358° (N) 3,214 6.6 -30.1°
